TimeEST,TemperatureF,Dew PointF,Humidity,Sea Level PressureIn,VisibilityMPH,Wind Direction,Wind SpeedMPH,Gust SpeedMPH,PrecipitationIn,Events,Conditions,WindDirDegrees,DateUTC
12:56 AM,52.0,48.9,89,29.79,10.0,NNW,12.7,-,0.00,Rain,Rain,340,2013-02-08 05:56:00
1:56 AM,51.1,48.0,89,29.82,10.0,NW,11.5,-,0.00,Rain,Rain,310,2013-02-08 06:56:00
2:56 AM,50.0,46.9,89,29.83,10.0,NNW,11.5,-,0.00,Rain,Rain,330,2013-02-08 07:56:00
3:36 AM,50.0,46.4,87,29.83,10.0,NNW,11.5,-,0.00,Rain,Rain,330,2013-02-08 08:36:00
3:56 AM,50.0,46.0,86,29.84,10.0,NNW,13.8,21.9,0.00,Rain,Rain,330,2013-02-08 08:56:00
4:56 AM,48.9,45.0,86,29.87,10.0,NNW,11.5,-,0.00,Rain,Rain,340,2013-02-08 09:56:00
5:05 AM,48.2,44.6,87,29.87,10.0,NNW,11.5,-,0.00,Rain,Rain,330,2013-02-08 10:05:00
5:56 AM,48.9,45.0,86,29.89,10.0,NNW,9.2,-,0.00,Rain,Rain,330,2013-02-08 10:56:00
6:56 AM,48.9,44.1,83,29.92,10.0,NNW,11.5,-,0.00,Rain,Rain,340,2013-02-08 11:56:00
7:56 AM,48.9,44.1,83,29.95,10.0,NW,9.2,-,0.00,Rain,Rain,320,2013-02-08 12:56:00
8:22 AM,50.0,44.6,82,29.96,10.0,NW,5.8,-,0.00,,Mostly Cloudy,310,2013-02-08 13:22:00
8:56 AM,50.0,44.1,80,29.97,10.0,NW,8.1,-,0.00,,Mostly Cloudy,320,2013-02-08 13:56:00
9:56 AM,53.1,44.1,71,29.98,10.0,NNW,10.4,-,N/A,,Scattered Clouds,330,2013-02-08 14:56:00
10:56 AM,55.9,45.0,67,29.98,10.0,WNW,8.1,-,N/A,,Partly Cloudy,290,2013-02-08 15:56:00
11:56 AM,57.0,45.0,64,29.97,10.0,West,8.1,-,N/A,,Clear,270,2013-02-08 16:56:00
12:56 PM,62.1,46.9,58,29.96,10.0,West,8.1,-,N/A,,Partly Cloudy,260,2013-02-08 17:56:00
1:56 PM,64.0,46.9,54,29.95,10.0,West,13.8,-,N/A,,Partly Cloudy,280,2013-02-08 18:56:00
2:56 PM,64.9,46.9,52,29.94,10.0,West,11.5,-,N/A,,Partly Cloudy,280,2013-02-08 19:56:00
3:56 PM,64.9,46.9,52,29.94,10.0,West,12.7,-,N/A,,Clear,280,2013-02-08 20:56:00
4:56 PM,63.0,46.9,56,29.95,10.0,West,11.5,-,N/A,,Clear,270,2013-02-08 21:56:00
5:56 PM,60.1,48.0,64,29.97,10.0,WNW,6.9,-,N/A,,Clear,290,2013-02-08 22:56:00
6:56 PM,57.0,48.0,72,29.98,10.0,West,8.1,-,N/A,,Clear,270,2013-02-08 23:56:00
7:56 PM,57.9,48.0,70,30.01,10.0,WNW,5.8,-,N/A,,Mostly Cloudy,290,2013-02-09 00:56:00
8:56 PM,59.0,48.9,69,30.04,10.0,West,6.9,-,N/A,,Overcast,270,2013-02-09 01:56:00
9:56 PM,55.9,48.0,75,30.05,10.0,WNW,8.1,-,N/A,,Clear,300,2013-02-09 02:56:00
10:56 PM,55.0,48.0,77,30.06,10.0,WNW,5.8,-,N/A,,Clear,300,2013-02-09 03:56:00
11:56 PM,54.0,48.0,80,30.08,10.0,NW,8.1,-,N/A,,Clear,320,2013-02-09 04:56:00